Location: Althorst
(53.6379°N, 10.7715°E)
Time: 05:49:09
(UTC+00:00)

Okean O Rocket - Pass Details

Date: 10 December 2019
Orbit: 624 x 644 km, 98.2° (Epoch: 22 January)

Event Time Altitude Azimuth Distance (km) Brightness Sun altitude
Rises 16:54:19 0° 201° (SSW) 2,898 5.6 -16.1°
Reaches altitude 10° 16:56:56 10° 217° (SW) 1,996 5.0 -16.5°
Maximum altitude 17:00:17 22° 268° (W) 1,388 4.3 -16.9°
Drops below altitude 10° 17:03:40 10° 319° (NW) 2,010 4.5 -17.4°
Sets 17:06:19 0° 335° (NNW) 2,924 5.1 -17.8°
